Worthington, MN

8:56 PM CST on December 13, 2019 (GMT -0600)
Worthington Municipal

Weather History for KOTG - October, 2019

Change the Weather History Date:

Wednesday, October 9, 2019

  Actual Average Record
Temperature  
Mean Temperature 61 °F -  
Max Temperature 70 °F 60 °F 80 °F (2010)
Min Temperature 52 °F 40 °F 24 °F (1974)
Degree Days  
Heating Degree Days 4    
Growing Degree Days 11 (Base 50)    
Moisture  
Dew Point 48 °F    
Average Humidity 70    
Maximum Humidity 94    
Minimum Humidity 49    
Precipitation  
Precipitation 0.00 in - - ()
Sea Level Pressure  
Sea Level Pressure 29.84 in    
Wind  
Wind Speed 14 mph (SSE)    
Max Wind Speed 21 mph    
Max Gust Speed 28 mph    
Visibility 10 miles    
Events Rain    
Averages and records for this station are not official NWS values.
T = Trace of Precipitation, MM = Missing Value Source: NWS Daily Summary

Daily Weather History Graph

Daily Weather History Graph

Search for Another Location

Airport or City:

Astronomy

Oct. 09, 2019 Rise Set
Actual Time 7:29 AM CDT 6:49 PM CDT
Civil Twilight 7:00 AM CDT 7:18 PM CDT
Nautical Twilight 6:27 AM CDT 7:51 PM CDT
Astronomical Twilight 5:53 AM CDT 8:24 PM CDT
Moon 5:31 PM CDT (10/9) 3:05 AM CDT (10/9)
Length of Visible Light 12h 17m
Length of Day
11h 20m
Waxing Gibbous, 85% of the Moon is Illuminated
Oct 9
Waxing Gibbous
Oct 13
Full
Oct 21
Last Quarter
Oct 27
New
Nov 4
First Quarter

Hourly Weather History & Observations

Time (CDT) Temp. Dew Point Humidity Pressure Visibility Wind Dir Wind Speed Gust Speed Precip Events Conditions
12:56 AM 55.0 °F 46.0 °F 72% 29.86 in 10.0 mi South 13.8 mph 20.7 mph N/A   Clear
1:56 AM 54.0 °F 46.0 °F 75% 29.85 in 10.0 mi South 12.7 mph 18.4 mph N/A   Clear
2:56 AM 53.1 °F 46.0 °F 77% 29.84 in 10.0 mi South 11.5 mph 16.1 mph N/A   Clear
3:56 AM 53.1 °F 46.9 °F 80% 29.82 in 10.0 mi South 19.6 mph 23.0 mph N/A   Clear
4:56 AM 53.1 °F 46.9 °F 80% 29.82 in 10.0 mi South 12.7 mph 18.4 mph N/A   Clear
5:56 AM 53.1 °F 46.9 °F 80% 29.83 in 10.0 mi South 12.7 mph 20.7 mph N/A   Clear
6:56 AM 52.0 °F 46.9 °F 83% 29.83 in 10.0 mi South 10.4 mph - N/A   Clear
7:56 AM 53.1 °F 46.9 °F 80% 29.83 in 10.0 mi SSE 15.0 mph 20.7 mph N/A   Clear
8:56 AM 55.0 °F 46.0 °F 72% 29.83 in 10.0 mi South 16.1 mph 24.2 mph N/A   Clear
9:56 AM 57.9 °F 46.9 °F 67% 29.85 in 10.0 mi South 15.0 mph 20.7 mph N/A   Clear
10:56 AM 64.0 °F 48.0 °F 56% 29.85 in 10.0 mi South 15.0 mph 19.6 mph N/A   Clear
11:56 AM 66.9 °F 48.0 °F 51% 29.83 in 10.0 mi South 16.1 mph 23.0 mph N/A   Clear
12:56 PM 68.0 °F 48.0 °F 49% 29.83 in 10.0 mi South 19.6 mph 26.5 mph N/A   Partly Cloudy
1:56 PM 66.9 °F 50.0 °F 54% 29.82 in 10.0 mi South 20.7 mph 26.5 mph N/A   Overcast
2:56 PM 69.1 °F 51.1 °F 53% 29.81 in 10.0 mi South 16.1 mph 23.0 mph N/A   Mostly Cloudy
3:56 PM 70.0 °F 52.0 °F 53% 29.81 in 10.0 mi South 18.4 mph 24.2 mph N/A   Scattered Clouds
4:56 PM 68.0 °F 52.0 °F 56% 29.81 in 10.0 mi South 16.1 mph 24.2 mph N/A   Partly Cloudy
5:56 PM 66.9 °F 51.1 °F 57% 29.82 in 10.0 mi South 10.4 mph 20.7 mph N/A   Partly Cloudy
6:56 PM 61.0 °F 48.9 °F 64% 29.85 in 10.0 mi South 16.1 mph 23.0 mph N/A   Clear
7:56 PM 59.0 °F 48.0 °F 67% 29.86 in 10.0 mi SSE 11.5 mph 17.3 mph N/A   Clear
8:56 PM 57.9 °F 48.0 °F 70% 29.87 in 10.0 mi SE 9.2 mph - N/A   Overcast
9:56 PM 57.0 °F 48.9 °F 74% 29.88 in 10.0 mi SSE 17.3 mph 25.3 mph N/A   Overcast
10:20 PM 55.4 °F 48.2 °F 77% 29.87 in 10.0 mi SSE 15.0 mph 23.0 mph N/A   Overcast
10:56 PM 55.0 °F 50.0 °F 83% 29.89 in 10.0 mi South 17.3 mph 27.6 mph 0.00 in Rain Light Rain
11:26 PM 53.6 °F 51.8 °F 94% 29.89 in 10.0 mi SSE 6.9 mph - 0.00 in Rain Light Rain
11:56 PM 54.0 °F 51.1 °F 90% 29.90 in 10.0 mi SSE 5.8 mph - 0.00 in   Overcast